Time,TemperatureF,DewpointF,PressureIn,WindDirection,WindDirectionDegrees,WindSpeedMPH,WindSpeedGustMPH,Humidity,HourlyPrecipIn,Conditions,Clouds,dailyrainin,SoftwareType,DateUTC
2013-12-07 00:00:00,34.4,33.6,30.06,SSW,211,1.0,1.0,97,0.00,,,0.36,Wunderground v.1.15,2013-12-07 04:00:00,
2013-12-07 00:10:00,34.4,33.9,30.07,SSW,212,2.0,15.0,98,0.00,,,0.00,Wunderground v.1.15,2013-12-07 04:10:00,
2013-12-07 00:20:00,34.5,33.7,30.07,SW,222,3.0,3.0,97,0.00,,,0.00,Wunderground v.1.15,2013-12-07 04:20:00,
2013-12-07 00:30:00,34.4,33.6,30.08,WSW,240,1.0,15.0,97,0.00,,,0.00,Wunderground v.1.15,2013-12-07 04:30:00,
2013-12-07 00:40:00,34.4,33.6,30.07,SSW,212,1.0,15.0,97,0.00,,,0.00,Wunderground v.1.15,2013-12-07 04:40:00,
2013-12-07 00:50:00,34.4,33.6,30.06,SSE,150,1.0,1.0,97,0.00,,,0.00,Wunderground v.1.15,2013-12-07 04:50:00,
2013-12-07 01:00:00,34.4,33.6,30.07,West,277,2.0,15.0,97,0.00,,,0.00,Wunderground v.1.15,2013-12-07 05:00:00,
2013-12-07 01:10:00,34.4,33.6,30.07,SW,218,2.0,15.0,97,0.00,,,0.00,Wunderground v.1.15,2013-12-07 05:10:00,
2013-12-07 01:20:00,34.5,33.7,30.08,SW,217,2.0,2.0,97,0.00,,,0.00,Wunderground v.1.15,2013-12-07 05:20:00,
2013-12-07 01:30:00,34.5,33.5,30.07,SSW,208,2.0,2.0,96,0.00,,,0.00,Wunderground v.1.15,2013-12-07 05:30:00,
2013-12-07 01:40:00,34.4,33.4,30.08,West,281,1.0,15.0,96,0.00,,,0.00,Wunderground v.1.15,2013-12-07 05:40:00,
2013-12-07 01:50:00,34.4,33.1,30.08,SSW,210,2.0,2.0,95,0.00,,,0.00,Wunderground v.1.15,2013-12-07 05:50:00,
2013-12-07 02:00:00,34.4,33.1,30.08,WSW,246,1.0,15.0,95,0.00,,,0.00,Wunderground v.1.15,2013-12-07 06:00:00,
2013-12-07 02:10:00,34.4,32.9,30.09,South,181,2.0,2.0,94,0.00,,,0.00,Wunderground v.1.15,2013-12-07 06:10:00,
2013-12-07 02:20:00,34.4,32.9,30.10,SW,222,2.0,2.0,94,0.00,,,0.00,Wunderground v.1.15,2013-12-07 06:20:00,
2013-12-07 02:30:00,34.4,32.6,30.10,West,259,2.0,15.0,93,0.00,,,0.00,Wunderground v.1.15,2013-12-07 06:30:00,
2013-12-07 02:40:00,34.4,32.6,30.11,SW,236,1.0,15.0,93,0.00,,,0.00,Wunderground v.1.15,2013-12-07 06:40:00,
2013-12-07 02:50:00,34.2,32.4,30.11,WSW,240,1.0,15.0,93,0.00,,,0.00,Wunderground v.1.15,2013-12-07 06:50:00,
2013-12-07 03:00:00,34.2,32.4,30.10,WSW,256,1.0,1.0,93,0.00,,,0.00,Wunderground v.1.15,2013-12-07 07:00:00,
2013-12-07 03:10:00,34.1,32.0,30.11,WSW,257,1.0,15.0,92,0.00,,,0.00,Wunderground v.1.15,2013-12-07 07:10:00,
2013-12-07 03:20:00,34.1,32.0,30.11,SSE,162,1.0,1.0,92,0.00,,,0.00,Wunderground v.1.15,2013-12-07 07:20:00,
2013-12-07 03:30:00,34.0,31.6,30.10,SW,217,1.0,15.0,91,0.00,,,0.00,Wunderground v.1.15,2013-12-07 07:30:00,
2013-12-07 03:40:00,33.9,31.6,30.10,SSW,210,1.0,1.0,91,0.00,,,0.00,Wunderground v.1.15,2013-12-07 07:40:00,
2013-12-07 03:50:00,33.8,31.5,30.12,SW,228,1.0,15.0,91,0.00,,,0.00,Wunderground v.1.15,2013-12-07 07:50:00,
2013-12-07 04:00:00,33.6,31.3,30.11,SW,226,1.0,15.0,91,0.00,,,0.00,Wunderground v.1.15,2013-12-07 08:00:00,
2013-12-07 04:10:00,33.5,31.2,30.10,SSW,204,1.0,1.0,91,0.00,,,0.00,Wunderground v.1.15,2013-12-07 08:10:00,
2013-12-07 04:20:00,33.5,30.9,30.11,WSW,240,1.0,15.0,90,0.00,,,0.00,Wunderground v.1.15,2013-12-07 08:20:00,
2013-12-07 04:30:00,33.3,30.7,30.10,SW,222,1.0,15.0,90,0.00,,,0.00,Wunderground v.1.15,2013-12-07 08:30:00,
2013-12-07 04:40:00,33.3,30.4,30.11,SW,217,1.0,15.0,89,0.00,,,0.00,Wunderground v.1.15,2013-12-07 08:40:00,
2013-12-07 04:50:00,33.2,30.3,30.11,SSW,208,1.0,15.0,89,0.00,,,0.00,Wunderground v.1.15,2013-12-07 08:50:00,
2013-12-07 05:00:00,33.1,30.2,30.12,SSW,208,1.0,1.0,89,0.00,,,0.00,Wunderground v.1.15,2013-12-07 09:00:00,
2013-12-07 05:10:00,33.1,30.2,30.11,SSW,205,1.0,1.0,89,0.00,,,0.00,Wunderground v.1.15,2013-12-07 09:10:00,
2013-12-07 05:20:00,32.9,30.0,30.11,SSW,212,1.0,1.0,89,0.00,,,0.00,Wunderground v.1.15,2013-12-07 09:20:00,
2013-12-07 05:30:00,32.7,29.8,30.11,SSW,205,1.0,15.0,89,0.00,,,0.00,Wunderground v.1.15,2013-12-07 09:30:00,
2013-12-07 05:40:00,32.6,29.4,30.10,WSW,238,1.0,15.0,88,0.00,,,0.00,Wunderground v.1.15,2013-12-07 09:40:00,
2013-12-07 05:50:00,32.5,29.3,30.10,SW,215,1.0,1.0,88,0.00,,,0.00,Wunderground v.1.15,2013-12-07 09:50:00,
2013-12-07 06:00:00,32.5,29.3,30.10,SSW,207,1.0,15.0,88,0.00,,,0.00,Wunderground v.1.15,2013-12-07 10:00:00,
2013-12-07 06:10:00,32.5,29.1,30.12,SW,221,1.0,15.0,87,0.00,,,0.00,Wunderground v.1.15,2013-12-07 10:10:00,
2013-12-07 06:20:00,32.5,29.3,30.13,SSW,205,1.0,1.0,88,0.00,,,0.00,Wunderground v.1.15,2013-12-07 10:20:00,
2013-12-07 06:30:00,32.3,29.1,30.13,SSW,198,1.0,1.0,88,0.00,,,0.00,Wunderground v.1.15,2013-12-07 10:30:00,
2013-12-07 06:40:00,32.3,28.9,30.13,WSW,245,1.0,1.0,87,0.00,,,0.00,Wunderground v.1.15,2013-12-07 10:40:00,
2013-12-07 06:50:00,32.2,28.8,30.13,SSW,198,1.0,1.0,87,0.00,,,0.00,Wunderground v.1.15,2013-12-07 10:50:00,
2013-12-07 07:00:00,32.1,28.4,30.12,WSW,245,1.0,15.0,86,0.00,,,0.00,Wunderground v.1.15,2013-12-07 11:00:00,
2013-12-07 07:10:00,32.0,28.3,30.12,SW,228,1.0,15.0,86,0.00,,,0.00,Wunderground v.1.15,2013-12-07 11:10:00,
2013-12-07 07:20:00,31.8,28.1,30.11,SW,228,1.0,1.0,86,0.00,,,0.00,Wunderground v.1.15,2013-12-07 11:20:00,
2013-12-07 07:30:00,31.8,28.1,30.12,SW,224,1.0,1.0,86,0.00,,,0.00,Wunderground v.1.15,2013-12-07 11:30:00,
2013-12-07 07:40:00,31.8,28.1,30.13,SW,217,1.0,15.0,86,0.00,,,0.00,Wunderground v.1.15,2013-12-07 11:40:00,
2013-12-07 07:50:00,31.7,28.0,30.13,SW,231,1.0,15.0,86,0.00,,,0.00,Wunderground v.1.15,2013-12-07 11:50:00,
2013-12-07 08:00:00,31.4,27.4,30.13,WSW,248,1.0,15.0,85,0.00,,,0.00,Wunderground v.1.15,2013-12-07 12:00:00,
2013-12-07 08:10:00,31.4,27.4,30.14,SW,224,1.0,1.0,85,0.00,,,0.00,Wunderground v.1.15,2013-12-07 12:10:00,
2013-12-07 08:20:00,31.3,27.3,30.15,SW,221,1.0,15.0,85,0.00,,,0.00,Wunderground v.1.15,2013-12-07 12:20:00,
2013-12-07 08:30:00,31.2,27.2,30.15,WSW,244,1.0,15.0,85,0.00,,,0.00,Wunderground v.1.15,2013-12-07 12:30:00,
2013-12-07 08:40:00,31.4,27.1,30.15,SW,228,1.0,1.0,84,0.00,,,0.00,Wunderground v.1.15,2013-12-07 12:40:00,
2013-12-07 08:50:00,31.7,27.1,30.14,SW,218,1.0,15.0,83,0.00,,,0.00,Wunderground v.1.15,2013-12-07 12:50:00,
2013-12-07 09:00:00,32.1,27.2,30.15,WSW,250,1.0,15.0,82,0.00,,,0.00,Wunderground v.1.15,2013-12-07 13:00:00,
2013-12-07 09:10:00,32.5,27.0,30.15,SSW,210,1.0,15.0,80,0.00,,,0.00,Wunderground v.1.15,2013-12-07 13:10:00,
2013-12-07 09:20:00,32.6,26.8,30.15,SW,228,2.0,2.0,79,0.00,,,0.00,Wunderground v.1.15,2013-12-07 13:20:00,
2013-12-07 09:30:00,32.8,27.0,30.15,SW,222,2.0,2.0,79,0.00,,,0.00,Wunderground v.1.15,2013-12-07 13:30:00,
2013-12-07 09:40:00,32.9,26.8,30.16,SW,233,2.0,15.0,78,0.00,,,0.00,Wunderground v.1.15,2013-12-07 13:40:00,
2013-12-07 09:50:00,33.1,27.0,30.16,SW,218,2.0,2.0,78,0.00,,,0.00,Wunderground v.1.15,2013-12-07 13:50:00,
2013-12-07 10:00:00,33.9,27.1,30.17,SW,222,1.0,15.0,76,0.00,,,0.00,Wunderground v.1.15,2013-12-07 14:00:00,
2013-12-07 10:10:00,34.1,26.7,30.16,SSW,201,3.0,15.0,74,0.00,,,0.00,Wunderground v.1.15,2013-12-07 14:10:00,
2013-12-07 10:20:00,34.1,27.0,30.16,SW,229,2.0,15.0,75,0.00,,,0.00,Wunderground v.1.15,2013-12-07 14:20:00,
2013-12-07 10:30:00,34.0,26.3,30.15,SSW,200,2.0,15.0,73,0.00,,,0.00,Wunderground v.1.15,2013-12-07 14:30:00,
2013-12-07 10:40:00,33.9,26.5,30.16,SW,217,2.0,15.0,74,0.00,,,0.00,Wunderground v.1.15,2013-12-07 14:40:00,
2013-12-07 10:50:00,33.9,26.2,30.15,SW,221,3.0,15.0,73,0.00,,,0.00,Wunderground v.1.15,2013-12-07 14:50:00,
2013-12-07 11:00:00,33.9,25.1,30.15,WSW,256,2.0,15.0,70,0.00,,,0.00,Wunderground v.1.15,2013-12-07 15:00:00,
2013-12-07 11:10:00,33.8,25.4,30.15,SW,236,2.0,15.0,71,0.00,,,0.00,Wunderground v.1.15,2013-12-07 15:10:00,
2013-12-07 11:20:00,33.8,25.4,30.14,WSW,248,3.0,3.0,71,0.00,,,0.00,Wunderground v.1.15,2013-12-07 15:20:00,
2013-12-07 11:30:00,33.9,25.1,30.13,WSW,238,2.0,15.0,70,0.00,,,0.00,Wunderground v.1.15,2013-12-07 15:30:00,
2013-12-07 11:40:00,34.0,25.2,30.13,West,272,2.0,15.0,70,0.00,,,0.00,Wunderground v.1.15,2013-12-07 15:40:00,
2013-12-07 11:50:00,33.9,24.1,30.13,West,276,3.0,3.0,67,0.00,,,0.00,Wunderground v.1.15,2013-12-07 15:50:00,
2013-12-07 12:00:00,33.9,25.1,30.13,SW,222,2.0,15.0,70,0.00,,,0.00,Wunderground v.1.15,2013-12-07 16:00:00,
2013-12-07 12:10:00,33.9,24.4,30.13,SW,218,2.0,15.0,68,0.00,,,0.00,Wunderground v.1.15,2013-12-07 16:10:00,
2013-12-07 12:20:00,33.9,24.4,30.13,SW,214,2.0,15.0,68,0.00,,,0.00,Wunderground v.1.15,2013-12-07 16:20:00,
2013-12-07 12:30:00,33.9,23.4,30.13,SW,236,2.0,15.0,65,0.00,,,0.00,Wunderground v.1.15,2013-12-07 16:30:00,
2013-12-07 12:40:00,33.6,22.3,30.12,West,280,2.0,15.0,63,0.00,,,0.00,Wunderground v.1.15,2013-12-07 16:40:00,
2013-12-07 12:50:00,33.7,23.5,30.12,West,272,2.0,2.0,66,0.00,,,0.00,Wunderground v.1.15,2013-12-07 16:50:00,
2013-12-07 13:00:00,33.9,23.4,30.12,South,173,1.0,15.0,65,0.00,,,0.00,Wunderground v.1.15,2013-12-07 17:00:00,
2013-12-07 13:10:00,33.6,24.9,30.12,WNW,298,3.0,15.0,70,0.00,,,0.00,Wunderground v.1.15,2013-12-07 17:10:00,
2013-12-07 13:20:00,33.6,24.9,30.12,SW,233,2.0,15.0,70,0.00,,,0.00,Wunderground v.1.15,2013-12-07 17:20:00,
2013-12-07 13:30:00,33.5,24.4,30.12,SSW,210,2.0,15.0,69,0.00,,,0.00,Wunderground v.1.15,2013-12-07 17:30:00,
2013-12-07 13:40:00,33.3,24.9,30.13,ESE,116,3.0,3.0,71,0.00,,,0.00,Wunderground v.1.15,2013-12-07 17:40:00,
2013-12-07 13:50:00,33.3,25.2,30.13,SW,226,2.0,15.0,72,0.00,,,0.00,Wunderground v.1.15,2013-12-07 17:50:00,
2013-12-07 14:00:00,33.1,24.0,30.11,SW,215,3.0,15.0,69,0.00,,,0.00,Wunderground v.1.15,2013-12-07 18:00:00,
2013-12-07 14:10:00,32.9,23.8,30.12,WSW,256,4.0,4.0,69,0.00,,,0.00,Wunderground v.1.15,2013-12-07 18:10:00,
2013-12-07 14:20:00,32.9,23.5,30.12,SSW,192,2.0,2.0,68,0.00,,,0.00,Wunderground v.1.15,2013-12-07 18:20:00,
2013-12-07 14:30:00,32.6,22.1,30.12,West,269,3.0,15.0,65,0.00,,,0.00,Wunderground v.1.15,2013-12-07 18:30:00,
2013-12-07 14:40:00,32.6,22.8,30.12,NW,314,3.0,3.0,67,0.00,,,0.00,Wunderground v.1.15,2013-12-07 18:40:00,
2013-12-07 14:50:00,32.8,22.7,30.12,South,183,4.0,4.0,66,0.00,,,0.00,Wunderground v.1.15,2013-12-07 18:50:00,
2013-12-07 15:00:00,32.3,22.6,30.12,WSW,246,5.0,5.0,67,0.00,,,0.00,Wunderground v.1.15,2013-12-07 19:00:00,
2013-12-07 15:10:00,32.0,21.9,30.12,WSW,240,4.0,15.0,66,0.00,,,0.00,Wunderground v.1.15,2013-12-07 19:10:00,
2013-12-07 15:20:00,31.4,21.7,30.12,SW,224,3.0,15.0,67,0.00,,,0.00,Wunderground v.1.15,2013-12-07 19:20:00,
2013-12-07 15:30:00,31.6,21.5,30.13,WSW,249,4.0,4.0,66,0.00,,,0.00,Wunderground v.1.15,2013-12-07 19:30:00,
2013-12-07 15:40:00,31.6,21.5,30.13,West,271,3.0,15.0,66,0.00,,,0.00,Wunderground v.1.15,2013-12-07 19:40:00,
2013-12-07 15:50:00,31.1,21.1,30.13,SW,233,2.0,2.0,66,0.00,,,0.00,Wunderground v.1.15,2013-12-07 19:50:00,
2013-12-07 16:00:00,30.6,21.3,30.13,SW,225,1.0,15.0,68,0.00,,,0.00,Wunderground v.1.15,2013-12-07 20:00:00,
2013-12-07 16:10:00,30.2,21.2,30.13,WSW,238,3.0,3.0,69,0.00,,,0.00,Wunderground v.1.15,2013-12-07 20:10:00,
2013-12-07 16:20:00,29.8,21.2,30.13,WSW,242,1.0,1.0,70,0.00,,,0.00,Wunderground v.1.15,2013-12-07 20:20:00,
2013-12-07 16:30:00,29.5,21.3,30.13,SW,222,1.0,15.0,71,0.00,,,0.00,Wunderground v.1.15,2013-12-07 20:30:00,
2013-12-07 16:40:00,29.2,21.3,30.14,SW,228,2.0,2.0,72,0.00,,,0.00,Wunderground v.1.15,2013-12-07 20:40:00,
2013-12-07 16:50:00,28.9,21.0,30.14,SW,228,1.0,15.0,72,0.00,,,0.00,Wunderground v.1.15,2013-12-07 20:50:00,
2013-12-07 17:00:00,28.8,20.9,30.14,SW,217,1.0,15.0,72,0.00,,,0.00,Wunderground v.1.15,2013-12-07 21:00:00,
2013-12-07 17:10:00,28.7,20.5,30.15,SW,226,2.0,2.0,71,0.00,,,0.00,Wunderground v.1.15,2013-12-07 21:10:00,
2013-12-07 17:20:00,28.8,20.2,30.15,SW,233,3.0,3.0,70,0.00,,,0.00,Wunderground v.1.15,2013-12-07 21:20:00,
2013-12-07 17:30:00,28.8,20.2,30.15,SW,221,2.0,2.0,70,0.00,,,0.00,Wunderground v.1.15,2013-12-07 21:30:00,
2013-12-07 17:40:00,28.5,20.0,30.15,WSW,252,1.0,15.0,70,0.00,,,0.00,Wunderground v.1.15,2013-12-07 21:40:00,
2013-12-07 17:50:00,28.5,19.6,30.16,WSW,243,2.0,15.0,69,0.00,,,0.00,Wunderground v.1.15,2013-12-07 21:50:00,
2013-12-07 18:00:00,28.4,18.8,30.16,SSW,195,2.0,15.0,67,0.00,,,0.00,Wunderground v.1.15,2013-12-07 22:00:00,
2013-12-07 18:10:00,28.1,18.9,30.17,SSW,212,1.0,1.0,68,0.00,,,0.00,Wunderground v.1.15,2013-12-07 22:10:00,
2013-12-07 18:20:00,28.0,18.8,30.17,South,177,1.0,1.0,68,0.00,,,0.00,Wunderground v.1.15,2013-12-07 22:20:00,
2013-12-07 18:30:00,27.6,18.4,30.17,SSW,208,1.0,1.0,68,0.00,,,0.00,Wunderground v.1.15,2013-12-07 22:30:00,
2013-12-07 18:40:00,27.5,18.0,30.17,SW,235,1.0,15.0,67,0.00,,,0.00,Wunderground v.1.15,2013-12-07 22:40:00,
2013-12-07 18:50:00,27.5,18.3,30.18,SSW,201,1.0,1.0,68,0.00,,,0.00,Wunderground v.1.15,2013-12-07 22:50:00,
2013-12-07 19:00:00,27.4,18.2,30.18,WSW,238,1.0,15.0,68,0.00,,,0.00,Wunderground v.1.15,2013-12-07 23:00:00,
2013-12-07 19:10:00,27.4,18.2,30.18,WSW,239,1.0,15.0,68,0.00,,,0.00,Wunderground v.1.15,2013-12-07 23:10:00,
2013-12-07 19:20:00,27.3,18.1,30.19,SW,224,2.0,2.0,68,0.00,,,0.00,Wunderground v.1.15,2013-12-07 23:20:00,
2013-12-07 19:30:00,27.4,17.5,30.19,West,260,2.0,2.0,66,0.00,,,0.00,Wunderground v.1.15,2013-12-07 23:30:00,
2013-12-07 19:40:00,27.7,16.7,30.19,SW,232,3.0,3.0,63,0.00,,,0.00,Wunderground v.1.15,2013-12-07 23:40:00,
2013-12-07 19:50:00,27.9,16.2,30.19,SW,225,2.0,2.0,61,0.00,,,0.00,Wunderground v.1.15,2013-12-07 23:50:00,
2013-12-07 20:00:00,28.0,16.3,30.20,SW,226,3.0,3.0,61,0.00,,,0.00,Wunderground v.1.15,2013-12-08 00:00:00,
2013-12-07 20:10:00,27.9,16.2,30.19,WSW,249,3.0,3.0,61,0.00,,,0.00,Wunderground v.1.15,2013-12-08 00:10:00,
2013-12-07 20:20:00,27.7,16.4,30.20,West,277,2.0,15.0,62,0.00,,,0.00,Wunderground v.1.15,2013-12-08 00:20:00,
2013-12-07 20:30:00,27.5,16.2,30.20,West,269,2.0,15.0,62,0.00,,,0.00,Wunderground v.1.15,2013-12-08 00:30:00,
2013-12-07 20:40:00,27.4,16.4,30.21,WSW,252,2.0,2.0,63,0.00,,,0.00,Wunderground v.1.15,2013-12-08 00:40:00,
2013-12-07 20:50:00,27.2,16.3,30.21,West,265,2.0,15.0,63,0.00,,,0.00,Wunderground v.1.15,2013-12-08 00:50:00,
2013-12-07 21:00:00,27.3,16.0,30.21,WSW,253,4.0,4.0,62,0.00,,,0.00,Wunderground v.1.15,2013-12-08 01:00:00,
2013-12-07 21:10:00,27.3,15.6,30.21,North,9,4.0,4.0,61,0.00,,,0.00,Wunderground v.1.15,2013-12-08 01:10:00,
2013-12-07 21:20:00,27.2,15.5,30.22,WSW,245,3.0,3.0,61,0.00,,,0.00,Wunderground v.1.15,2013-12-08 01:20:00,
2013-12-07 21:30:00,27.0,15.7,30.22,NE,54,2.0,15.0,62,0.00,,,0.00,Wunderground v.1.15,2013-12-08 01:30:00,
2013-12-07 21:40:00,26.9,15.2,30.23,West,274,3.0,3.0,61,0.00,,,0.00,Wunderground v.1.15,2013-12-08 01:40:00,
2013-12-07 21:50:00,26.8,15.1,30.23,WNW,288,4.0,4.0,61,0.00,,,0.00,Wunderground v.1.15,2013-12-08 01:50:00,
2013-12-07 22:00:00,26.7,15.0,30.23,SW,226,3.0,15.0,61,0.00,,,0.00,Wunderground v.1.15,2013-12-08 02:00:00,
2013-12-07 22:10:00,26.6,15.3,30.24,NW,309,4.0,4.0,62,0.00,,,0.00,Wunderground v.1.15,2013-12-08 02:10:00,
2013-12-07 22:20:00,26.4,15.5,30.24,SW,222,3.0,3.0,63,0.00,,,0.00,Wunderground v.1.15,2013-12-08 02:20:00,
2013-12-07 22:30:00,26.3,15.4,30.23,WSW,249,3.0,15.0,63,0.00,,,0.00,Wunderground v.1.15,2013-12-08 02:30:00,
2013-12-07 22:40:00,26.3,15.4,30.24,SW,236,4.0,4.0,63,0.00,,,0.00,Wunderground v.1.15,2013-12-08 02:40:00,
2013-12-07 22:50:00,26.3,15.4,30.24,SW,225,4.0,15.0,63,0.00,,,0.00,Wunderground v.1.15,2013-12-08 02:50:00,
2013-12-07 23:00:00,26.3,15.4,30.24,SSW,212,4.0,4.0,63,0.00,,,0.00,Wunderground v.1.15,2013-12-08 03:00:00,
2013-12-07 23:10:00,26.0,15.5,30.25,SW,221,3.0,15.0,64,0.00,,,0.00,Wunderground v.1.15,2013-12-08 03:10:00,
2013-12-07 23:20:00,25.8,15.3,30.25,ENE,70,4.0,4.0,64,0.00,,,0.00,Wunderground v.1.15,2013-12-08 03:20:00,
2013-12-07 23:30:00,25.5,15.0,30.26,West,277,4.0,4.0,64,0.00,,,0.00,Wunderground v.1.15,2013-12-08 03:30:00,
2013-12-07 23:40:00,25.5,15.0,30.26,West,280,4.0,4.0,64,0.00,,,0.00,Wunderground v.1.15,2013-12-08 03:40:00,
2013-12-07 23:50:00,25.5,15.4,30.27,West,277,4.0,15.0,65,0.00,,,0.00,Wunderground v.1.15,2013-12-08 03:50:00,